Regional Weather Roundup
Issued by NWS

Home | Current Version | Previous Version | Text Only | Print | Product List | Glossary Off
Versions: 1 2 3 4 5 6 7 8 9 10 11 12 13 14 15 16 17 18 19 20 21 22 23 24 25 26 27 28 29 30 31 32 33 34 35 36 37 38 39 40 41 42 43 44 45 46 47 48 49 50

000
ASUS43 KDTX 290201
RWRMI
MICHIGAN HOURLY REGIONAL WEATHER ROUNDUP
NATIONAL WEATHER SERVICE DETROIT/PONTIAC MI
1000 PM EDT FRI AUG 28 2015

NOTE: "FAIR" INDICATES FEW OR NO CLOUDS BELOW 12,000 FEET WITH NO
SIGNIFICANT WEATHER AND/OR OBSTRUCTION TO VISIBILITY.

MIZ047>049-052>055-059>063-066>070-074>076-081>083-290300-
SOUTHEAST LOWER MICHIGAN

CITY           SKY/WX    TMP DP  RH WIND       PRES   REMARKS
ADRIAN         PTCLDY    63  59  87 CALM      30.15R
ALMA           CLOUDY    62  61  96 CALM      30.13R
ANN ARBOR      PTCLDY    60  59  96 CALM      30.15R
BAD AXE        MOCLDY    63  59  87 SE5       30.13S
CARO           MOCLDY    60  59  96 CALM      30.12S
DETROIT CITY   PTCLDY    67  58  72 S6        30.15R
DETROIT        MOCLDY    67  60  78 CALM      30.15R
FLINT          MOCLDY    63  58  83 S5        30.13R
GROSSE ILE     PTCLDY    68  63  83 SE5       30.14R
HILLSDALE      PTCLDY    61  61 100 SE5       30.15R
HOWELL         PTCLDY    66  61  82 CALM      30.14R

CITY           SKY/WX    TMP DP  RH WIND       PRES   REMARKS
JACKSON        PTCLDY    64  61  90 CALM      30.14R
LAMBERTVILLE   PTCLDY    63  60  88 CALM      30.15S
LANSING        MOCLDY    64  59  83 CALM      30.13R
LAPEER         FAIR      62  59  89 CALM      30.14S
MASON          PTCLDY    64  60  88 SE3       30.14R
MT. CLEMENS    PTCLDY    64  60  88 S5        30.13R
PONTIAC        CLOUDY    66  59  78 S3        30.14R
PORT HOPE        N/A     63  58  83 S5        30.12R
PORT HURON     MOCLDY    59  59 100 CALM      30.15S
TRI CITIES     MOCLDY    68  60  75 S5        30.12S
MIDLAND        FAIR      64  61  91 CALM      30.11R
TROY           PTCLDY    68  57  67 CALM      30.16R
SAGINAW HB     MOCLDY    63  61  94 CALM      30.11S
$$
MIZ043>046-050>051-056>058-064>065-071>073-077>080-290300-
SOUTHWEST LOWER MICHIGAN

CITY           SKY/WX    TMP DP  RH WIND       PRES   REMARKS
BATTLE CREEK   CLOUDY    71  62  73 E3        30.13R
BENTON HARBOR  CLOUDY    67  63  87 CALM      30.11R
BIG RAPIDS     CLOUDY    64  61  91 CALM      30.12S
COLDWATER      MOCLDY    65  64  97 SE3       30.13R
FREMONT        MOCLDY    65  64  96 CALM      30.12R
HOLLAND        CLOUDY    67  63  87 CALM      30.12R
GRAND RAPIDS   CLOUDY    67  62  84 CALM      30.13R
IONIA          FAIR      63  62  96 CALM      30.12R
KALAMAZOO      CLOUDY    71  61  70 CALM      30.13R
LUDINGTON      DRIZZLE   68  65  88 S3        30.12R
MARSHALL       MOCLDY    66  63  90 CALM      30.12S
MOUNT PLEASANT CLOUDY    66  62  87 CALM      30.11S
MUSKEGON       LGT RAIN  67  61  81 CALM      30.12R
SOUTH HAVEN    CLOUDY    66  63  88 CALM      30.11R
$$
MIZ016>042-290300-
NORTHERN LOWER MICHIGAN

CITY           SKY/WX    TMP DP  RH WIND       PRES   REMARKS
ALPENA         MOCLDY    62  57  83 S6        30.10R
BEAVER ISLAND  CLOUDY    66  62  86 SW13      30.06S
BELLAIRE       CLOUDY    67  60  78 CALM      30.08S
CADILLAC       CLOUDY    64  59  86 SW3       30.12R
CHARLEVOIX     CLOUDY    68  59  73 S6        30.10R
FRANKFORT      LGT RAIN  67  64  90 SW6       30.10R
GAYLORD        CLOUDY    64  59  83 SW6       30.11S
GRAYLING       MOCLDY    62  58  87 SW3       30.12R
HARBOR SPRINGS CLOUDY    67  60  79 CALM      30.07S
HOUGHTON LAKE  CLOUDY    64  58  80 S3        30.12R
MANISTEE       CLOUDY    64  59  82 CALM      30.12R
OSCODA         MOCLDY    61  58  90 CALM      30.11R
PELLSTON       CLOUDY    65  60  84 CALM      30.08S
ROGERS CITY    CLOUDY    67  58  72 S6        30.09S
TRAVERSE CITY  CLOUDY    69  58  67 VRB3      30.09R
$$
MIZ007>008-015-290300-
EASTERN UPPER MICHIGAN

CITY           SKY/WX    TMP DP  RH WIND       PRES   REMARKS
KINROSS        CLOUDY    64  61  88 S5        30.07R
MACKINAC ISLAN CLOUDY    66  56  70 SW6       30.07R
NEWBERRY       CLOUDY    64  61  91 S8        30.04S
S. S. MARIE    CLOUDY    66  58  75 SE7       30.05S
$$
MIZ004>006-011>014-085-290300-
CENTRAL UPPER MICHIGAN

CITY           SKY/WX    TMP DP  RH WIND       PRES   REMARKS
MANISTIQUE     CLOUDY    63  61  93 S8        30.04R
ESCANABA       CLOUDY    66  63  88 S10       30.04R
MENOMINEE      CLOUDY    64  57  77 SW8       30.07R
SAWYER-GWINN   CLOUDY    70  63  78 SW9       30.03R
$$
MIZ001>003-009>011-084-290300-
WESTERN UPPER MICHIGAN

CITY           SKY/WX    TMP DP  RH WIND       PRES   REMARKS
IRON MOUNTAIN  CLOUDY    68  61  78 SW6       30.04R
HOUGHTON       CLOUDY    66  62  87 SW6       29.96F
COPPER HARBOR    N/A     65  61  87 SW8       29.94S
IRONWOOD       PTCLDY    68  61  77 S15G22    29.98S
$$

ABBREVIATIONS USED IN REMARKS
   TC - TEMPERATURE IN CELSIUS
  WCI - WIND CHILL INDEX
   HX - HEAT INDEX
  VSB - VISIBILITY




USA.gov is the U.S. government's official web portal to all federal, state and local government web resources and services.